Regional Weather Roundup
Issued by NWS San Angelo, TX

Home | Current Version | Previous Version | Text Only | Print | Product List | Glossary On
Versions: 1 2 3 4 5 6 7 8 9 10 11 12 13 14 15 16 17 18 19 20 21 22 23 24 25 26 27 28 29 30 31 32 33 34 35 36 37 38 39 40 41 42 43 44 45 46 47 48 49 50
000
ASUS44 KSJT 200010
RWRSJT
WEST CENTRAL TEXAS REGIONAL WEATHER ROUNDUP
NATIONAL WEATHER SERVICE SAN ANGELO TX
600 PM CST FRI DEC 19 2014

NOTE: "FAIR" INDICATES FEW OR NO CLOUDS BELOW 12,000 FEET WITH NO
SIGNIFICANT WEATHER AND/OR OBSTRUCTIONS TO VISIBILITY.

TXZ049-054-064>066-071>073-076>078-098-099-113-114-127-128-139-140-
154-155-168>170-200100
...LOCATIONS ACROSS WEST CENTRAL TEXAS...

CITY           SKY/WX    TMP DP  RH WIND       PRES   REMARKS
SAN ANGELO     CLOUDY    49  42  77 E6        30.15R
ABILENE        CLOUDY    46  40  79 NE3       30.16S
DYESS AFB      CLOUDY    46  39  76 NE3       30.15S
JUNCTION       CLEAR     53  45  74 E7        30.11S
SWEETWATER     CLOUDY    46  38  75 E3        30.18S
BROWNWOOD      CLOUDY    50  43  76 N9        30.16S
COLEMAN        CLOUDY    48  44  85 NE8       30.15F
SONORA         CLEAR     54  45  71 N7        30.15R
OZONA          FAIR      50  41  71 NE12      30.15R
BRADY          CLOUDY    52  45  76 N10       30.13R
$$

TEXAS PANHANDLE/OKLAHOMA PANHANDLE

CITY           SKY/WX    TMP DP  RH WIND       PRES   REMARKS
AMARILLO       CLOUDY    40  36  86 SW5       30.14R WCI  37
BORGER         CLOUDY    42  35  76 SW7       30.14R WCI  38
CANADIAN       CLOUDY    44  39  83 SW3       30.13S
DALHART        CLEAR     36  32  85 S8        30.10S WCI  30
DUMAS          CLOUDY    38  33  85 S9        30.12R WCI  31
GUYMON         NOT AVBL
HEREFORD       MOCLDY    41  35  79 CALM      30.13R
PAMPA          CLOUDY    40  36  84 SW5       30.14R WCI  37
PERRYTON       CLOUDY    41  37  84 SW9       30.12S WCI  35
$$

SOUTHERN PANHANDLE/SOUTH PLAINS/ROLLING PLAINS

CITY           SKY/WX    TMP DP  RH WIND       PRES   REMARKS
LUBBOCK        MOCLDY    41  36  82 E6        30.13R WCI  37
SNYDER         CLOUDY    43  38  82 CALM      30.16S
CHILDRESS      CLOUDY    44  38  79 CALM      30.18S
SEMINOLE       CLEAR     50  32  50 SE3       30.11S
$$

PERMIAN BASIN

CITY           SKY/WX    TMP DP  RH WIND       PRES   REMARKS
MIDLAND        CLEAR     50  38  63 E6        30.11S
ODESSA         CLEAR     51  36  56 E6        30.11S
WINK           CLEAR     54  32  43 S7        30.09R
$$

FAR WEST/SOUTHWEST MOUNTAINS/TRANS PECOS

CITY           SKY/WX    TMP DP  RH WIND       PRES   REMARKS
ALPINE         CLEAR     50  27  40 SW7       30.18R
DRYDEN           N/A     62  41  46 E8        30.07R
EL PASO        PTCLDY    52  31  44 W5        30.13S
FORT STOCKTON  CLEAR     53  34  48 NE5       30.12R
GUADALUPE PASS NOT AVBL
MARFA          CLEAR     48  25  40 W9        30.15S
PECOS          CLEAR     56  31  38 CALM      30.11R
$$

DALLAS/FORT WORTH METROPLEX

CITY           SKY/WX    TMP DP  RH WIND       PRES   REMARKS
DFW AIRPORT    DRIZZLE   48  44  86 N8        30.17S
FTW MEACHAM    CLOUDY    49  43  80 N10       30.17R
DAL-EXECUTIVE  CLOUDY    50  45  83 N6        30.17R
GRAND PRAIRIE  NOT AVBL
ADDISON        NOT AVBL
MESQUITE       CLOUDY    48  46  93 N9        30.18R
LANCASTER      CLOUDY    48  45  88 N6        30.18R
$$

NORTH CENTRAL TEXAS

CITY           SKY/WX    TMP DP  RH WIND       PRES   REMARKS
SHRMAN/DENISON CLOUDY    45  44  97 CALM      30.20R
GAINESVILLE    CLOUDY    44  41  89 NE3       30.20S
BRIDGEPORT     CLOUDY    47  43  87 N6        30.20S
DENTON         CLOUDY    47  42  83 N8        30.19R
WAXAHACHIE     CLOUDY    47  47 100 N7        30.18R FOG
GRANBURY       CLOUDY    49  44  83 CALM      30.19S
$$

WESTERN NORTH TEXAS

CITY           SKY/WX    TMP DP  RH WIND       PRES   REMARKS
WICHITA FALLS  CLOUDY    45  40  82 NE5       30.18S
VERNON         CLOUDY    45  37  74 CALM      30.20R
BRECKENRIDGE   CLOUDY    49  41  74 NE3       30.17S
COMANCHE       CLOUDY    47  46  94 NE5       30.17R
$$

CENTRAL AND SOUTH CENTRAL TEXAS

CITY           SKY/WX    TMP DP  RH WIND       PRES   REMARKS
AUSTIN/BERGSTM CLOUDY    52  47  83 N14       30.12R
WACO           CLOUDY    49  46  90 N9        30.16S
HILLSBORO      CLOUDY    49  46  92 N6        30.17R FOG
TEMPLE         CLOUDY    48  43  81 N10G17      N/A
KILLEEN-GRAY   CLOUDY    47  46  96 N13       30.15R
FORT HOOD      CLOUDY    47  46  95 N12       30.15R
GEORGETOWN     CLOUDY    50  46  87 N7        30.13S
LAGO VISTA     CLOUDY    50  47  88 N7        30.14R
SAN MARCOS     CLOUDY    54  46  76 N15       30.11R
NEW BRAUNFELS  CLOUDY    56  47  71 N15       30.10R
RANDOLPH AFB   PTCLDY    55  48  76 N12       30.10R
SAN ANTONIO    PTCLDY    55  47  74 N12       30.10R
STINSON        CLEAR     57  48  72 N9        30.08R
PLEASANTON     NOT AVBL
LA GRANGE      CLOUDY    55  51  89 N12G20    30.09R
GIDDINGS       CLOUDY    51  48  89 N13       30.15R
$$

EAST TEXAS

CITY           SKY/WX    TMP DP  RH WIND       PRES   REMARKS
PARIS          CLOUDY    46  43  87 E5        30.19S
CLARKSVILLE    NOT AVBL
TYLER          CLOUDY    47  45  93 NE8       30.15R FOG
LONGVIEW       CLOUDY    49  46  90 N3        30.15R FOG
PALESTINE      CLOUDY    49  49  97 N8        30.15R FOG
NACOGDOCHES    CLOUDY    48  46  93 N6        30.13R
$$

TEXAS HILL COUNTRY AND EDWARDS PLATEAU

CITY           SKY/WX    TMP DP  RH WIND       PRES   REMARKS
LLANO          CLOUDY    52  46  82 N6        30.18R
HORSESHOE BAY  CLOUDY    51  45  78 NE6       30.14R
KERRVILLE      CLEAR     51  46  83 N5        30.13R
FREDERICKSBRG  CLOUDY    50  44  81 N3        30.13R
ROCKSPRINGS    CLEAR     55  45  67 E6        30.12R
HONDO          CLEAR     59  49  69 NE8       30.10R
UVALDE         CLEAR     44  37  76 SE3       30.08S
DEL RIO        CLEAR     65  44  46 N5        30.05R
$$

SOUTHEAST TEXAS

CITY           SKY/WX    TMP DP  RH WIND       PRES   REMARKS
COLLEGE STN    CLOUDY    52  49  89 N14       30.11R FOG
CALDWELL       CLOUDY    50  50 100 NW8       30.15S
CROCKETT       CLOUDY    52  52 100 N7        30.15R
BRENHAM        CLOUDY    55  53  91 NW12      30.10S
HUNTSVILLE     CLOUDY    52  50  93 VRB6      30.10R FOG
CONROE         CLOUDY    54  51  90 N6        30.08R
HOUSTON BUSH   CLOUDY    54  52  93 N12       30.06R
HOUSTON HOBBY  CLOUDY    54  52  93 N14       30.04R
PERLAND        CLOUDY    56  54  93 NE9       30.05R
WHARTON        CLOUDY    57  54  90 N9        30.06R
$$

THE UPPER TEXAS COAST

CITY           SKY/WX    TMP DP  RH WIND       PRES   REMARKS
ORANGE         DRIZZLE   54  53  98 NE10      30.04S
PORT ARTHUR    LGT RAIN  54  52  93 N10       30.02R
GALVESTON      LGT RAIN  55  54  96 N16       30.02R
ANGLETON       CLOUDY    53  53 100 N15       30.02R
BAY CITY         N/A     56  56  97 N10       30.03R
$$

TEXAS COASTAL BEND, RIO GRANDE PLAINS DEEP SOUTH TEXAS

CITY           SKY/WX    TMP DP  RH WIND       PRES   REMARKS
VICTORIA       CLOUDY    61  56  83 N10       30.06R
BEEVILLE       CLOUDY    60  55  81 N7        30.06R
ROCKPORT       CLOUDY    60  55  83 N13       30.05R
PORT ARANSAS   CLOUDY    59  55  88 N14G20    30.04R
PORT LAVACA    CLOUDY    58  55  91 N12       30.05R
CORPUS CHRISTI CLOUDY    61  56  83 N12       30.05R
KINGSVILLE NAS CLOUDY    62  58  86 N9        30.06R
COTULLA        PTCLDY    63  50  62 NE6       30.08R
LAREDO         CLEAR     61  54  77 N5        30.09R
BROWNSVILLE    CLOUDY    61  57  87 N10       30.02R
PORT ISABEL    CLOUDY    61  56  83 NW16      30.02R
HEBBRONVILLE   CLEAR     61  54  78 N5        30.06S
MCALLEN        CLOUDY    62  56  80 N9        30.06R
WESLACO        CLOUDY    61  55  82 N12       30.04R
FALFURRIAS     CLOUDY    63  55  77 N8        30.05R
EDINBURG       CLOUDY    63  56  80 N6        30.05R
$$



USA.gov is the U.S. government's official web portal to all federal, state and local government web resources and services.